Regional Weather Roundup
Issued by NWS Grand Forks, ND

Home | Current Version | Previous Version | Text Only | Print | Product List | Glossary Off
Versions: 1 2 3 4 5 6 7 8 9 10 11 12 13 14 15 16 17 18 19 20 21 22 23 24 25 26 27 28 29 30 31 32 33 34 35 36 37 38 39 40 41 42 43 44 45 46 47 48 49 50

000
ASUS43 KFGF 180010
RWRFGF
PRAIRIE TO PINES  WEATHER ROUNDUP
NATIONAL WEATHER SERVICE EASTERN NORTH DAKOTA/GRAND FORKS ND
700 PM CDT WED SEP 17 2014

 **SATELLITE DATA USED TO AUGMENT SKY COVER AT AUTOMATED STATIONS**
 *****  WEATHER ACROSS EASTERN NORTH DAKOTA  *****

CITY           SKY/WX    TMP DP  RH WIND       PRES   REMARKS
GRAND FORKS    CLEAR     61  46  57 NE10      30.02R
6HR MIN TEMP:  61; 6HR MAX TEMP:  66;

GRAND FRKS AFB CLEAR     60  48  63 NE7       30.03R
GRAND FRKS NWS   N/A     59 N/A N/A NE6         N/A
DEVILS LAKE    CLEAR     57  43  58 E9        30.02R
6HR MIN TEMP:  57; 6HR MAX TEMP:  61;

FARGO          CLEAR     68  52  56 N9        29.97S
WAHPETON ARPT  CLEAR     70  43  37 E3        29.97R
$$

 ***** WEATHER ACROSS CENTRAL AND WESTERN NORTH DAKOTA  *****

CITY           SKY/WX    TMP DP  RH WIND       PRES   REMARKS
BISMARCK       PTCLDY    70  52  52 E9        29.96S
6HR MIN TEMP:  68; 6HR MAX TEMP:  76;

MINOT          CLEAR     64  48  56 E9        29.97S
6HR MIN TEMP:  64; 6HR MAX TEMP:  70;

JAMESTOWN      CLEAR     65  52  62 E8        29.99R
6HR MIN TEMP:  65; 6HR MAX TEMP:  73;

MINOT AFB      CLEAR     64  50  60 E12       29.97S
GARRISON         N/A     69  46  43 E8        29.95F
WILLISTON      CLEAR     73  43  33 SE9       29.91F
6HR MIN TEMP:  73; 6HR MAX TEMP:  79;

DICKINSON      CLEAR     68  46  45 SE8       29.94R
6HR MIN TEMP:  67; 6HR MAX TEMP:  72;

HETTINGER      MOCLDY    65  52  62 E9        29.95R
6HR MIN TEMP:  64; 6HR MAX TEMP:  74; 6HR PCP: TRACE;

$$

 *****  OTHER AIRPORT OBSERVATIONS IN OUR AREA  *****

CITY           SKY/WX    TMP DP  RH WIND       PRES   REMARKS
WALHALLA         N/A     54  41  62 NE8       30.06S
GRAFTON AIRPOR FAIR      57  45  62 N9        30.03S
VALLEY CITY AR FAIR      64  54  68 NE7       30.00R
CANDO          FAIR      57  45  62 E7        30.04R
CAVALIER APRT  FAIR      55  43  62 NE6       30.06R
GWINNER        CLEAR     70  48  46 NE7       29.99R
SHEYENNE NWR     N/A     69  49  48 NE6       29.95
ROLLA          FAIR      55  41  58 E6        30.05R
 ***** THE ABOVE OBSERVATIONS ARE NON NWS ARE NOT QUALITY
       CONTROLLED AND MAY MIS-REPORT RAIN FOR SNOW...
$$

  *****  WEATHER ACROSS NORTHERN MINNESOTA  *****

CITY           SKY/WX    TMP DP  RH WIND       PRES   REMARKS
FLAG ISLAND    MOCLDY    46  36  66 NE7       30.09S
WARROAD        CLOUDY    48  43  81 NE13      30.10R
ROSEAU         PTCLDY    48  39  71 E14       30.09R
HALLOCK        CLEAR     57  45  62 NE10      30.05R
THF RVR FALLS  CLEAR     57  45  62 N10       30.03S
6HR MIN TEMP:  57; 6HR MAX TEMP:  63;

BAUDETTE       CLEAR     47  39  74 NE7       30.09R
6HR MIN TEMP:  47; 6HR MAX TEMP:  57;

WASKISH        CLEAR     54  45  71 NE6       30.06R
CROOKSTON      CLEAR     61  48  63 NE6       30.02R
$$
  *****  WEATHER ACROSS CENTRAL AND WEST MINNESOTA  *****

CITY           SKY/WX    TMP DP  RH WIND       PRES   REMARKS
FOSSTON        CLEAR     61  46  59 NE5       30.02S
BEMIDJI        CLEAR     59  49  68 N7        30.02R
PARK RAPIDS    CLEAR     66  50  56 NE7       29.98R
6HR MIN TEMP:  66; 6HR MAX TEMP:  74;

ELBOW LAKE     FAIR      68  53  58 NE3       29.96S
6HR MIN TEMP:  68; 6HR MAX TEMP:  73;

WADENA         CLEAR     64  54  68 CALM      29.96S
DETROIT LAKES  CLEAR     68  52  56 N3        29.99R
MOORHEAD       CLEAR     68  54  60 N7        29.98R
FERGUS FALLS   CLEAR     70  43  37 CALM      29.96S
MORRIS MN      CLEAR     70  54  56 E3        29.95R
STAPLES        CLEAR     70  46  43 CALM      29.97R
$$
  *****  WEATHER ELSEWHERE ACROSS MINNESOTA  *****

CITY           SKY/WX    TMP DP  RH WIND       PRES   REMARKS
DULUTH         CLOUDY    45  40  82 E16       30.06R
6HR MIN TEMP:  45; 6HR MAX TEMP:  69;

INTRNTL FALLS  CLOUDY    48  38  68 NE7       30.09R
6HR MIN TEMP:  48; 6HR MAX TEMP:  55;

ELY            DRIZZLE   46  43  87 E5        30.08S
CLOQUET        CLOUDY    46  41  81 NE13      30.05R
WHEATON        CLEAR     66  52  59 NE5       29.97R
BRAINERD       CLEAR     65  53  65 N3        29.97S
6HR MIN TEMP:  65; 6HR MAX TEMP:  71;

HIBBING        CLOUDY    52  44  74 E7        30.05R
6HR MIN TEMP:  52; 6HR MAX TEMP:  67; 6HR PCP: TRACE;

ALEXANDRIA     CLEAR     69  52  54 NE5       29.98S
6HR MIN TEMP:  68; 6HR MAX TEMP:  73;

SAINT CLOUD    CLEAR     71  55  56 CALM      29.96R
6HR MIN TEMP:  71; 6HR MAX TEMP:  77;

MINNEAPOLIS    PTCLDY    70  53  54 E7        29.95R
6HR MIN TEMP:  69; 6HR MAX TEMP:  77;

$$

  *****  WEATHER ACROSS SOUTH DAKOTA  *****

CITY           SKY/WX    TMP DP  RH WIND       PRES   REMARKS
SIOUX FALLS    MOCLDY    73  55  53 NE6       29.93R
6HR MIN TEMP:  72; 6HR MAX TEMP:  80;

BROOKINGS      NOT AVBL
WATERTOWN      CLEAR     68  51  54 E6        29.97R
6HR MIN TEMP:  68; 6HR MAX TEMP:  74;

HURON          PTCLDY    73  49  42 N3        29.93S
6HR MIN TEMP:  73; 6HR MAX TEMP:  79;

SISSETON         N/A     66  55  67 E3        29.95R
ABERDEEN       MOCLDY    65  52  62 N6        29.97R
6HR MIN TEMP:  65; 6HR MAX TEMP:  73;

MITCHELL       PTCLDY    75  59  57 NE5       29.93R
PIERRE         PTCLDY    73  50  44 E10       29.92R
6HR MIN TEMP:  73; 6HR MAX TEMP:  81;

MOBRIDGE       CLOUDY    67  49  52 E7        29.96R
RAPID CITY     PTCLDY    78  51  38 E10       29.92S
6HR MIN TEMP:  72; 6HR MAX TEMP:  80;

$$

  *****  SOME WEATHER IN NEARBY STATES *****

CITY           SKY/WX    TMP DP  RH WIND       PRES   REMARKS
GLASGOW MT     SUNNY     78  46  32 SE15      29.80F
6HR MIN TEMP:  72; 6HR MAX TEMP:  82;

GREAT FALLS MT CLOUDY    77  55  46 S5        29.80F
6HR MIN TEMP:  75; 6HR MAX TEMP:  84;

CHEYENNE WY    CLOUDY    76  39  26 N7        30.09F
6HR MIN TEMP:  73; 6HR MAX TEMP:  87; 6HR PCP: TRACE;

SCOTTSBLUFF NE MOSUNNY   83  46  27 NW5       29.94R
6HR MIN TEMP:  82; 6HR MAX TEMP:  89;

OMAHA NE       PTCLDY    77  61  57 E6        29.90R
6HR MIN TEMP:  74; 6HR MAX TEMP:  80;

DES MOINES IA  PTCLDY    72  56  57 E5        29.93S
6HR MIN TEMP:  71; 6HR MAX TEMP:  76;

DAVENPORT IA   CLEAR     64  48  56 CALM      29.97R
6HR MIN TEMP:  64; 6HR MAX TEMP:  70;

CHICAGO IL     CLEAR     66  46  48 E8        29.98R
6HR MIN TEMP:  66; 6HR MAX TEMP:  70;

EAU CLAIRE WI  CLEAR     66  53  63 CALM      29.96R
6HR MIN TEMP:  66; 6HR MAX TEMP:  72;

LA CROSSE WI   CLEAR     66  54  65 CALM      29.96S
6HR MIN TEMP:  66; 6HR MAX TEMP:  72;

$$

  *****  SOME NATIONAL WEATHER *****

CITY           SKY/WX    TMP DP  RH WIND       PRES   REMARKS
LA GUARDIA NY  PTCLDY    70  45  40 NW10      29.97S
6HR MIN TEMP:  69; 6HR MAX TEMP:  73;

RALEIGH NC     PTCLDY    71  64  78 E5        29.94R
6HR MIN TEMP:  70; 6HR MAX TEMP:  79;

ATLANTA GA     PTCLDY    77  56  48 NW12      29.92R
6HR MIN TEMP:  77; 6HR MAX TEMP:  86;

NEW ORLEANS LA MOCLDY    84  70  62 N5        29.90S
6HR MIN TEMP:  84; 6HR MAX TEMP:  89;

OKLAHOMA CITY  CLOUDY    85  69  58 S3        29.85F
6HR MIN TEMP:  85; 6HR MAX TEMP:  92;

ALBUQUERQUE NM PTSUNNY   68  56  65 CALM      30.08F
6HR MIN TEMP:  64; 6HR MAX TEMP:  69; 6HR PCP: TRACE;

SALT LAKE CITY MOSUNNY   92  39  15 N7        29.86F
6HR MIN TEMP:  88; 6HR MAX TEMP:  94;

LOS ANGELES CA MOSUNNY   80  55  42 W20G26    29.70F
6HR MIN TEMP:  78; 6HR MAX TEMP:  83;



USA.gov is the U.S. government's official web portal to all federal, state and local government web resources and services.